• Em Portugal
  • Lista de países
  • Para 7 dias
  • Temperatura da água
  • Mapas de satélite
  • Mapa do tempo
  • Widgets de tempo
  • user-avatar
    Iniciar Sessão

    Previsão horária em Aracaju

    Hoje, 20 Fevereiro, Terça-feira

    Tempo Temperatura Precipitação Vento Pressão Humidade
    00:00 +27°C° 0 mm 3 m/s 757 mmHg 83%
    01:00 +27°C° 0 mm 3 m/s 757 mmHg 84%
    02:00 +27°C° 0 mm 2 m/s 757 mmHg 85%
    03:00 +27°C° 0 mm 2 m/s 757 mmHg 85%
    04:00 +27°C° 0 mm 2 m/s 757 mmHg 86%
    05:00 +27°C° 0 mm 2 m/s 757 mmHg 86%
    06:00 +27°C° 0 mm 2 m/s 757 mmHg 86%
    07:00 +27°C° 0 mm 2 m/s 757 mmHg 86%
    08:00 +28°C° 0,1 mm 2 m/s 757 mmHg 79%
    09:00 +30°C° 0,1 mm 2 m/s 758 mmHg 71%
    10:00 +31°C° 0,1 mm 2 m/s 758 mmHg 64%
    11:00 +33°C° 0,1 mm 3 m/s 758 mmHg 61%
    12:00 +34°C° 0,1 mm 3 m/s 757 mmHg 59%
    13:00 +34°C° 0,1 mm 4 m/s 757 mmHg 56%
    14:00 +34°C° 0,1 mm 4 m/s 756 mmHg 58%
    15:00 +34°C° 0,1 mm 4 m/s 756 mmHg 59%
    16:00 +33°C° 0,1 mm 5 m/s 755 mmHg 61%
    17:00 +32°C° 0 mm 5 m/s 755 mmHg 66%
    18:00 +30°C° 0 mm 5 m/s 755 mmHg 70%
    19:00 +29°C° 0 mm 5 m/s 756 mmHg 74%
    20:00 +29°C° 0 mm 4 m/s 756 mmHg 76%
    21:00 +28°C° 0 mm 4 m/s 757 mmHg 79%
    22:00 +28°C° 0 mm 4 m/s 757 mmHg 81%
    23:00 +28°C° 0 mm 4 m/s 757 mmHg 82%

    Amanhã, 21 Fevereiro, Quarta-feira

    Tempo Temperatura Precipitação Vento Pressão Humidade
    00:00 +28°C° 0 mm 3 m/s 757 mmHg 83%
    01:00 +28°C° 0 mm 3 m/s 757 mmHg 84%
    02:00 +27°C° 0 mm 3 m/s 757 mmHg 85%
    03:00 +27°C° 0 mm 3 m/s 756 mmHg 86%
    04:00 +27°C° 0 mm 3 m/s 756 mmHg 87%
    05:00 +27°C° 0 mm 3 m/s 756 mmHg 87%
    06:00 +27°C° 0 mm 3 m/s 757 mmHg 87%
    07:00 +27°C° 0 mm 3 m/s 757 mmHg 87%
    08:00 +28°C° 0 mm 3 m/s 757 mmHg 79%
    09:00 +30°C° 0 mm 3 m/s 758 mmHg 71%
    10:00 +33°C° 0 mm 4 m/s 758 mmHg 63%
    11:00 +34°C° 0 mm 4 m/s 758 mmHg 59%
    12:00 +35°C° 0 mm 4 m/s 757 mmHg 55%
    13:00 +36°C° 0 mm 4 m/s 757 mmHg 52%
    14:00 +35°C° 0 mm 4 m/s 756 mmHg 53%
    15:00 +35°C° 0 mm 5 m/s 755 mmHg 54%
    16:00 +35°C° 0 mm 5 m/s 755 mmHg 56%
    17:00 +34°C° 0 mm 5 m/s 755 mmHg 61%
    18:00 +32°C° 0 mm 5 m/s 755 mmHg 66%
    19:00 +30°C° 0 mm 5 m/s 755 mmHg 71%
    20:00 +30°C° 0 mm 5 m/s 756 mmHg 74%
    21:00 +29°C° 0 mm 5 m/s 756 mmHg 76%
    22:00 +29°C° 0 mm 5 m/s 757 mmHg 78%
    23:00 +28°C° 0,1 mm 5 m/s 757 mmHg 79%

    Depois de amanhã, 22 Fevereiro, Quinta-feira

    Tempo Temperatura Precipitação Vento Pressão Humidade
    00:00 +28°C° 0,1 mm 4 m/s 757 mmHg 80%
    01:00 +28°C° 0,1 mm 4 m/s 757 mmHg 81%
    02:00 +28°C° 0,1 mm 4 m/s 756 mmHg 82%
    03:00 +27°C° 0,1 mm 4 m/s 756 mmHg 84%
    04:00 +27°C° 0,1 mm 4 m/s 756 mmHg 86%
    05:00 +27°C° 0 mm 4 m/s 756 mmHg 86%
    06:00 +27°C° 0 mm 4 m/s 756 mmHg 87%
    07:00 +27°C° 0 mm 4 m/s 757 mmHg 87%
    08:00 +29°C° 0 mm 4 m/s 757 mmHg 78%
    09:00 +30°C° 0 mm 4 m/s 758 mmHg 70%
    10:00 +33°C° 0 mm 4 m/s 758 mmHg 61%
    11:00 +34°C° 0,1 mm 4 m/s 757 mmHg 57%
    12:00 +35°C° 0,1 mm 4 m/s 757 mmHg 52%
    13:00 +36°C° 0,1 mm 4 m/s 756 mmHg 48%
    14:00 +36°C° 0 mm 5 m/s 756 mmHg 52%
    15:00 +35°C° 0 mm 5 m/s 755 mmHg 55%
    16:00 +34°C° 0 mm 6 m/s 754 mmHg 58%
    17:00 +33°C° 0,1 mm 6 m/s 755 mmHg 63%
    18:00 +32°C° 0,1 mm 6 m/s 755 mmHg 69%
    19:00 +30°C° 0,1 mm 6 m/s 755 mmHg 74%
    20:00 +30°C° 0 mm 5 m/s 756 mmHg 76%
    21:00 +29°C° 0 mm 5 m/s 756 mmHg 79%
    22:00 +29°C° 0 mm 5 m/s 757 mmHg 81%
    23:00 +29°C° 0 mm 5 m/s 757 mmHg 82%

    23 Fevereiro, Sexta-feira

    Tempo Temperatura Precipitação Vento Pressão Humidade
    00:00 +28°C° 0 mm 4 m/s 757 mmHg 83%
    01:00 +28°C° 0 mm 4 m/s 757 mmHg 84%
    02:00 +28°C° 0 mm 4 m/s 756 mmHg 85%
    03:00 +28°C° 0 mm 3 m/s 756 mmHg 86%
    04:00 +27°C° 0 mm 3 m/s 756 mmHg 87%
    05:00 +27°C° 0 mm 3 m/s 756 mmHg 87%
    06:00 +27°C° 0 mm 3 m/s 756 mmHg 88%
    07:00 +27°C° 0 mm 3 m/s 757 mmHg 88%
    08:00 +29°C° 0 mm 3 m/s 757 mmHg 80%
    09:00 +30°C° 0 mm 3 m/s 758 mmHg 72%
    10:00 +33°C° 0 mm 3 m/s 758 mmHg 64%
    11:00 +34°C° 0 mm 4 m/s 757 mmHg 59%
    12:00 +35°C° 0 mm 4 m/s 757 mmHg 54%
    13:00 +36°C° 0 mm 4 m/s 756 mmHg 49%
    14:00 +36°C° 0 mm 4 m/s 756 mmHg 51%
    15:00 +35°C° 0 mm 5 m/s 755 mmHg 53%
    16:00 +35°C° 0 mm 5 m/s 754 mmHg 55%
    17:00 +34°C° 0 mm 5 m/s 755 mmHg 61%
    18:00 +32°C° 0 mm 5 m/s 755 mmHg 67%
    19:00 +30°C° 0 mm 5 m/s 755 mmHg 73%
    20:00 +30°C° 0 mm 5 m/s 756 mmHg 76%
    21:00 +29°C° 0 mm 5 m/s 756 mmHg 79%
    22:00 +29°C° 0 mm 4 m/s 757 mmHg 82%
    23:00 +29°C° 0 mm 4 m/s 757 mmHg 83%

    24 Fevereiro, Sábado

    Tempo Temperatura Precipitação Vento Pressão Humidade
    00:00 +28°C° 0 mm 4 m/s 756 mmHg 83%
    01:00 +28°C° 0 mm 3 m/s 756 mmHg 83%
    02:00 +28°C° 0 mm 3 m/s 756 mmHg 84%
    03:00 +28°C° 0 mm 3 m/s 756 mmHg 85%
    04:00 +27°C° 0 mm 3 m/s 756 mmHg 85%
    05:00 +27°C° 0 mm 2 m/s 756 mmHg 86%
    06:00 +27°C° 0 mm 2 m/s 756 mmHg 86%
    07:00 +27°C° 0 mm 2 m/s 757 mmHg 86%
    08:00 +29°C° 0 mm 2 m/s 757 mmHg 79%
    09:00 +30°C° 0 mm 3 m/s 757 mmHg 71%
    10:00 +33°C° 0 mm 3 m/s 757 mmHg 63%
    11:00 +34°C° 0 mm 3 m/s 757 mmHg 60%
    12:00 +34°C° 0 mm 4 m/s 756 mmHg 56%
    13:00 +35°C° 0 mm 4 m/s 756 mmHg 53%
    14:00 +35°C° 0 mm 4 m/s 755 mmHg 54%
    15:00 +35°C° 0 mm 5 m/s 755 mmHg 55%
    16:00 +34°C° 0 mm 5 m/s 754 mmHg 56%
    17:00 +33°C° 0 mm 5 m/s 754 mmHg 62%
    18:00 +32°C° 0 mm 5 m/s 755 mmHg 67%
    19:00 +30°C° 0 mm 5 m/s 755 mmHg 72%
    20:00 +29°C° 0 mm 4 m/s 756 mmHg 74%
    21:00 +29°C° 0 mm 4 m/s 756 mmHg 75%
    22:00 +28°C° 0 mm 3 m/s 757 mmHg 77%
    23:00 +28°C° 0 mm 3 m/s 757 mmHg 78%

    25 Fevereiro, Domingo

    Tempo Temperatura Precipitação Vento Pressão Humidade
    00:00 +27°C° 0 mm 2 m/s 757 mmHg 80%
    01:00 +27°C° 0 mm 2 m/s 757 mmHg 82%
    02:00 +27°C° 0,3 mm 2 m/s 756 mmHg 83%
    03:00 +27°C° 0,3 mm 2 m/s 756 mmHg 84%
    04:00 +26°C° 0,3 mm 2 m/s 756 mmHg 86%
    05:00 +26°C° 0,4 mm 2 m/s 757 mmHg 86%
    06:00 +26°C° 0,4 mm 2 m/s 757 mmHg 86%
    07:00 +26°C° 0,4 mm 2 m/s 757 mmHg 85%
    08:00 +28°C° 0,2 mm 3 m/s 757 mmHg 77%
    09:00 +30°C° 0,2 mm 3 m/s 758 mmHg 68%
    10:00 +33°C° 0,2 mm 4 m/s 758 mmHg 60%
    11:00 +33°C° 0,2 mm 4 m/s 758 mmHg 57%
    12:00 +34°C° 0,2 mm 4 m/s 757 mmHg 54%
    13:00 +35°C° 0,2 mm 5 m/s 757 mmHg 52%
    14:00 +35°C° 0,2 mm 5 m/s 756 mmHg 53%
    15:00 +34°C° 0,2 mm 5 m/s 756 mmHg 55%
    16:00 +34°C° 0,2 mm 6 m/s 755 mmHg 56%
    17:00 +33°C° 0,2 mm 6 m/s 756 mmHg 60%
    18:00 +32°C° 0,2 mm 6 m/s 756 mmHg 65%
    19:00 +30°C° 0,2 mm 6 m/s 756 mmHg 69%
    20:00 +29°C° 0,1 mm 6 m/s 757 mmHg 72%
    21:00 +29°C° 0,1 mm 5 m/s 757 mmHg 75%
    22:00 +29°C° 0,1 mm 5 m/s 757 mmHg 78%
    23:00 +28°C° 0,1 mm 5 m/s 757 mmHg 79%
    Mostrar mais